Location: Lake Almanor
(40.2485°N, 121.1442°W)
Time: 16:18:26
(UTC-08:00)

STARLINK-1073 - Pass Details

Date: 01 February 2020
Orbit: 530 x 532 km, 53.0° (Epoch: 17 February)

Event Time Altitude Azimuth Distance (km) Brightness Sun altitude
Rises 19:04:19 0° 303° (WNW) 2,655 7.9 -19.6°
Reaches altitude 10° 19:06:38 10° 296° (WNW) 1,761 7.0 -20.0°
Maximum altitude 19:10:21 39° 227° (SW) 794 4.8 -20.7°
Enters shadow 19:12:49 18° 167° (SSE) 1,303 5.4 -21.2°
